Location: Bonny Doon Airfield
(37.0704°N, 122.1252°W)
Time: 22:36:10
(UTC-07:00)

ISS - Pass Details

Date: 10 October 2017
Orbit: 401 x 408 km, 51.6° (Epoch: 19 October)

Event Time Altitude Azimuth Distance (km) Brightness Sun altitude
Rises 19:48:06 0° 322° (NW) 2,324 0.6 -14.8°
Reaches altitude 10° 19:50:48 10° 346° (NNW) 1,464 -0.8 -15.3°
Maximum altitude 19:52:52 16° 25° (NNE) 1,175 -1.7 -15.7°
Enters shadow 19:53:03 16° 29° (NNE) 1,177 -1.7 -15.8°
